Weather reports worldwide

Advertisment
London/Heathrow Intl, United Kingdom (3772): temperature & dewpoint: 15.01.2017 02:00:00 - 21.01.2017 02:00:00 (GMT)London/Heathrow Intl, United Kingdom (3772): wind speed: 15.01.2017 02:00:00 - 21.01.2017 02:00:00 (GMT)London/Heathrow Intl, United Kingdom (3772): wind direction: 15.01.2017 02:00:00 - 21.01.2017 02:00:00 (GMT)London/Heathrow Intl, United Kingdom (3772): reduced air pressure: 15.01.2017 02:00:00 - 21.01.2017 02:00:00 (GMT)London/Heathrow Intl, United Kingdom (3772): visibility: 15.01.2017 02:00:00 - 21.01.2017 02:00:00 (GMT)London/Heathrow Intl, United Kingdom (3772): sunshine duration: 15.01.2017 02:00:00 - 21.01.2017 02:00:00 (GMT)London/Heathrow Intl, United Kingdom (3772): precipitation: 15.01.2017 02:00:00 - 21.01.2017 02:00:00 (GMT)
Date & Time tt [°C] td [°C] ff [km/h] ff [kn] dd ppp [hPa] vv [km] sd [min] rr [mm]
21.01.2017 02:00:00 -1,0 -1,0 5 3 NE - 9 - -
21.01.2017 01:00:00 0,5 -0,4 11 6 NNE 1030,9 10 0 0,0
21.01.2017 00:00:00 0,8 -0,3 9 5 NE 1031,2 10 - 0,0
20.01.2017 23:00:00 1,2 -0,6 8 4 NE 1031,5 10 0 0,0
20.01.2017 22:00:00 1,5 -0,7 5 3 NE 1031,4 10 0 0,0
20.01.2017 21:00:00 1,8 -1,3 4 2 NNE 1031,5 10 0 0,0
20.01.2017 20:00:00 2,5 -1,6 8 4 NE 1031,6 10 0 0,0
20.01.2017 19:00:00 2,9 -2,7 8 4 NE 1031,7 10 0 0,0
20.01.2017 18:00:00 4,1 -3,3 13 7 ENE 1031,7 10 0 0,0
20.01.2017 17:00:00 4,8 -5,0 11 6 ENE 1031,9 10 0 0,0
20.01.2017 16:00:00 6,2 -4,1 13 7 ENE 1031,9 22 48 0,0
20.01.2017 15:00:00 7,1 -3,7 13 7 ENE 1032,0 10 60 0,0
20.01.2017 14:00:00 7,0 -2,6 15 8 ENE 1032,4 10 54 0,0
20.01.2017 13:00:00 6,6 -2,5 16 9 ENE 1032,9 18 60 0,0
20.01.2017 12:00:00 5,8 -1,8 15 8 ENE 1033,7 10 54 0,0
20.01.2017 11:00:00 4,2 -1,0 8 4 ENE 1034,2 10 60 0,0
20.01.2017 10:00:00 2,0 -1,2 9 5 NE 1034,5 11 42 0,0
20.01.2017 09:00:00 -0,1 -2,3 8 4 NNE 1034,6 9 0 0,0
20.01.2017 08:00:00 -1,0 -2,8 8 4 NNE 1034,7 9 0 0,0
20.01.2017 07:00:00 -0,7 -2,3 5 3 N 1034,5 10 0 0,0
20.01.2017 06:00:00 -0,6 -2,1 8 4 N 1034,7 8 0 0,0
20.01.2017 05:00:00 -0,7 -2,1 5 3 NNE 1035,0 9 0 0,0
20.01.2017 04:00:00 -0,7 -2,0 5 3 NNE 1035,1 8 0 0,0
20.01.2017 03:00:00 -0,4 -2,0 4 2 - 1035,2 8 0 0,0
20.01.2017 02:00:00 -0,1 -1,9 8 4 NE 1035,3 9 0 0,0
20.01.2017 01:00:00 -0,1 -1,6 5 3 NE 1035,5 9 0 0,0
20.01.2017 00:00:00 0,4 -1,4 4 2 NNE 1035,9 8 - 0,0
19.01.2017 23:00:00 0,8 -1,3 5 3 NNE 1036,2 7 0 0,0
19.01.2017 22:00:00 1,4 -0,9 9 5 NE 1036,4 8 0 0,0
19.01.2017 21:00:00 1,6 -0,7 8 4 NNE 1036,4 7 0 0,0
19.01.2017 20:00:00 2,5 -0,2 8 4 NE 1036,5 7 0 0,0
19.01.2017 19:00:00 3,2 0,1 8 4 NE 1036,4 8 0 0,0
19.01.2017 18:00:00 3,7 -0,3 8 4 NE 1036,2 10 0 0,0
19.01.2017 17:00:00 4,5 -0,6 9 5 NE 1036,2 10 0 0,0
19.01.2017 16:00:00 5,8 -0,7 8 4 NE 1036,2 11 12 0,0
19.01.2017 15:00:00 6,8 -1,1 9 5 ENE 1036,3 10 60 0,0
19.01.2017 14:00:00 6,9 -2,2 11 6 ENE 1036,4 10 54 0,0
19.01.2017 13:00:00 6,6 -3,8 11 6 ENE 1036,9 14 60 0,0
19.01.2017 12:00:00 5,9 -1,7 9 5 NE 1037,5 10 54 0,0
19.01.2017 11:00:00 3,6 -0,2 5 3 NE 1038,0 9 36 0,0
19.01.2017 10:00:00 1,6 -0,9 8 4 N 1037,8 8 0 0,0
19.01.2017 09:00:00 0,5 -1,5 5 3 NNE 1038,0 8 0 0,0
19.01.2017 08:00:00 -0,6 -2,0 9 5 NNE 1038,0 8 0 0,0
19.01.2017 07:00:00 -1,4 -2,6 5 3 N 1037,7 9 0 0,0
19.01.2017 06:00:00 -2,1 -2,9 4 2 NNW 1037,4 9 0 0,0
19.01.2017 05:00:00 -2,9 -3,9 2 1 NNW 1037,8 8 0 0,0
19.01.2017 04:00:00 -2,1 -3,2 4 2 - 1038,1 7 0 0,0
19.01.2017 03:00:00 -1,8 -3,0 4 2 N 1038,2 9 0 0,0
19.01.2017 02:00:00 -1,3 -2,9 4 2 N 1038,3 9 0 0,0
19.01.2017 01:00:00 -1,0 -3,2 2 1 ENE 1038,3 9 0 0,0
19.01.2017 00:00:00 0,5 -2,4 5 3 N 1038,5 9 - 0,0
18.01.2017 23:00:00 0,5 -2,3 4 2 - 1038,4 10 0 0,0
18.01.2017 22:00:00 1,5 -2,4 4 2 N 1038,3 8 0 0,0
18.01.2017 21:00:00 1,7 -2,3 4 2 - 1038,5 9 0 0,0
18.01.2017 20:00:00 1,5 -3,5 4 2 - 1038,8 9 0 0,0
18.01.2017 19:00:00 1,8 -4,0 2 1 NE 1038,6 9 0 0,0
18.01.2017 18:00:00 2,9 -4,0 8 4 ESE 1038,5 10 0 0,0
18.01.2017 17:00:00 4,0 -4,5 2 1 ESE 1038,4 10 0 0,0
18.01.2017 16:00:00 4,8 -5,5 4 2 - 1038,6 10 30 0,0
18.01.2017 15:00:00 5,0 -5,8 4 2 - 1038,7 10 60 0,0
18.01.2017 14:00:00 4,9 -6,4 4 2 - 1038,6 10 54 0,0
18.01.2017 13:00:00 4,3 -5,3 5 3 - 1039,0 10 60 0,0
18.01.2017 12:00:00 5,1 -5,0 4 2 - 1039,3 10 60 0,0
18.01.2017 11:00:00 3,4 -2,4 5 3 - 1039,6 10 60 0,0
18.01.2017 10:00:00 0,4 -1,4 4 2 N 1039,6 7 42 0,0
18.01.2017 09:00:00 -2,0 -2,0 0 0 N 1039,6 6 0 0,0
18.01.2017 08:00:00 -2,7 -3,5 2 1 - 1039,0 3,8 0 0,0
18.01.2017 07:00:00 -2,1 -2,6 4 2 NNE 1038,8 5 0 0,0
18.01.2017 06:00:00 -2,8 -3,7 2 1 - 1038,4 2,3 0 0,0
18.01.2017 05:00:00 -2,2 -2,7 2 1 - 1038,5 3,4 0 0,0
18.01.2017 04:00:00 -2,3 -2,7 2 1 NE 1038,6 4,1 0 0,0
18.01.2017 03:00:00 -3,0 -3,6 4 2 E 1038,8 3,5 0 0,0
18.01.2017 02:00:00 -1,8 -2,6 2 1 ENE 1038,8 3,5 0 0,0
18.01.2017 01:00:00 -1,4 -2,1 0 0 N 1038,7 6 0 0,0
18.01.2017 00:00:00 -1,4 -2,4 2 1 SE 1038,7 5 - 0,0
17.01.2017 23:00:00 -0,5 -2,8 5 3 S 1038,4 6 0 0,0
17.01.2017 22:00:00 0,4 -2,1 5 3 S 1038,2 6 0 0,0
17.01.2017 21:00:00 0,1 -2,0 8 4 SE 1038,3 7 0 0,0
17.01.2017 20:00:00 0,3 -2,6 5 3 E 1038,1 8 0 0,0
17.01.2017 19:00:00 0,3 -3,2 5 3 SSE 1037,7 10 0 0,0
17.01.2017 18:00:00 2,1 -4,4 8 4 SE 1037,4 10 0 0,0
17.01.2017 17:00:00 2,7 -3,8 8 4 SSE 1037,0 10 0 0,0
17.01.2017 16:00:00 4,3 -3,9 5 3 - 1036,9 10 30 0,0
17.01.2017 15:00:00 5,4 -4,6 5 3 - 1036,5 10 60 0,0
17.01.2017 14:00:00 6,1 -3,3 8 4 SSE 1036,4 10 54 0,0
17.01.2017 13:00:00 6,0 -3,0 8 4 SSE 1036,6 15 60 0,0
17.01.2017 12:00:00 5,5 -1,6 8 4 ESE 1036,9 9 54 0,0
17.01.2017 11:00:00 4,4 0,8 9 5 SE 1036,9 6 60 0,0
17.01.2017 10:00:00 3,0 2,1 4 2 ESE 1036,6 5 30 0,0
17.01.2017 09:00:00 0,8 0,5 5 3 ESE 1036,3 6 0 0,0
17.01.2017 08:00:00 0,7 0,4 2 1 E 1035,7 10 0 0,0
17.01.2017 07:00:00 0,7 0,2 8 4 ESE 1034,9 7 0 0,0
17.01.2017 06:00:00 1,4 1,0 4 2 ENE 1034,5 3,4 0 0,0
17.01.2017 05:00:00 1,3 1,0 4 2 E 1034,0 6 0 0,0
17.01.2017 04:00:00 1,8 1,4 4 2 E 1033,7 6 0 0,0
17.01.2017 03:00:00 1,9 1,2 5 3 ESE 1033,4 6 0 0,0
17.01.2017 02:00:00 2,4 1,6 5 3 E 1033,2 7 0 0,0
17.01.2017 01:00:00 3,2 2,4 8 4 SE 1032,4 7 0 0,0
17.01.2017 00:00:00 3,9 2,9 2 1 ENE 1032,4 11 - 0,0
16.01.2017 23:00:00 4,3 2,8 4 2 E 1032,0 10 0 0,0
16.01.2017 22:00:00 4,3 3,1 2 1 SE 1031,9 10 0 0,0
16.01.2017 21:00:00 4,7 2,9 4 2 - 1031,3 10 0 0,0
16.01.2017 20:00:00 4,7 3,0 8 4 SE 1030,7 10 0 0,0
16.01.2017 19:00:00 4,5 3,3 5 3 SE 1030,2 10 0 0,0
16.01.2017 18:00:00 4,4 3,1 8 4 SE 1029,5 10 0 0,0
16.01.2017 17:00:00 4,5 3,0 8 4 SE 1028,8 10 0 0,0
16.01.2017 16:00:00 4,6 3,2 8 4 ESE 1028,4 10 0 0,0
16.01.2017 15:00:00 4,9 3,4 8 4 ESE 1028,2 10 0 0,0
16.01.2017 14:00:00 4,9 3,8 8 4 ESE 1027,9 10 0 0,2
16.01.2017 13:00:00 4,8 3,8 9 5 SE 1027,7 10 0 0,2
16.01.2017 12:00:00 4,9 4,0 9 5 ESE 1028,0 6 0 0,6
16.01.2017 11:00:00 4,8 3,7 9 5 ESE 1028,0 8 0 0,8
16.01.2017 10:00:00 4,8 4,3 8 4 SE 1027,7 5 0 0,4
16.01.2017 09:00:00 4,7 4,4 9 5 SE 1027,5 3,5 0 0,6
16.01.2017 08:00:00 5,0 4,7 9 5 ESE 1026,8 3,4 0 0,4
16.01.2017 07:00:00 5,3 5,0 8 4 ESE 1026,2 5 0 0,4
16.01.2017 06:00:00 5,4 5,1 5 3 E 1025,9 2,6 0 0,4
16.01.2017 05:00:00 5,8 5,5 9 5 ENE 1025,5 2,2 0 0,2
16.01.2017 04:00:00 6,6 6,0 9 5 E 1025,2 2,3 0 0,0
16.01.2017 03:00:00 7,4 6,7 8 4 NE 1025,0 7 0 0,2
16.01.2017 02:00:00 7,9 7,3 5 3 NE 1024,7 5 0 0,0
16.01.2017 01:00:00 8,1 7,5 8 4 N 1024,4 7 0 0,0
16.01.2017 00:00:00 8,0 7,5 4 2 - 1024,4 5 - 0,0
15.01.2017 23:00:00 7,8 7,5 5 3 NW 1024,2 6 0 0,0
15.01.2017 22:00:00 8,0 7,6 5 3 NNW 1023,7 5 0 0,0
15.01.2017 21:00:00 8,5 7,8 4 2 - 1023,1 10 0 0,0
15.01.2017 20:00:00 8,7 8,1 5 3 - 1022,8 10 0 0,6
15.01.2017 19:00:00 9,0 8,3 8 4 NNW 1022,2 4,4 0 0,2
15.01.2017 18:00:00 8,7 8,2 11 6 NW 1021,9 10 0 0,2
15.01.2017 17:00:00 8,6 8,0 11 6 NW 1021,4 3,5 0 0,0
15.01.2017 16:00:00 8,6 7,9 13 7 WNW 1020,9 10 0 0,0
15.01.2017 15:00:00 8,2 7,7 13 7 WNW 1020,6 5 0 0,4
15.01.2017 14:00:00 7,6 7,0 13 7 WNW 1020,5 5 0 0,0
15.01.2017 13:00:00 7,2 6,4 15 8 WNW 1020,7 10 0 0,2
15.01.2017 12:00:00 6,5 6,0 13 7 WNW 1021,1 10 0 0,6
15.01.2017 11:00:00 5,9 5,5 15 8 W 1021,7 6 0 0,6
15.01.2017 10:00:00 5,1 4,7 15 8 SW 1022,2 8 0 0,8
15.01.2017 09:00:00 4,4 4,1 9 5 SW 1023,1 8 0 0,2
15.01.2017 08:00:00 3,8 3,4 11 6 SW 1023,5 9 0 0,6
15.01.2017 07:00:00 3,4 3,2 9 5 SW 1023,6 10 0 0,2
15.01.2017 06:00:00 3,0 2,9 8 4 S 1023,7 6 0 0,4
15.01.2017 05:00:00 2,2 2,1 5 3 W 1024,0 5 0 0,6
15.01.2017 04:00:00 1,7 1,4 8 4 W 1024,4 5 0 0,6
15.01.2017 03:00:00 1,4 0,9 8 4 W 1024,4 6 0 0,0
15.01.2017 02:00:00 1,1 0,3 5 3 WNW 1024,2 9 0 0,0

tt = temperature
td = dewpoint
ff = wind speed
dd = wind direction
ppp = reduced air pressure
vv = visibility
sd = sunshine duration
rr = precipitation

Next stations